FW5104 Weather Reports


time (UTC)temp
C
wind
direction
speed
KPH
gust
KPH
rain 1hr
cm
rain 24hr
cm
rain mn
cm
humidity
%
barometer
mb
20260507201518 22 248 4.8 9.7 0.00 0.00 0.00 70 1017.0
20260507200516 22 248 3.2 9.7 0.00 0.00 0.00 71 1017.0
20260507195517 22 270 3.2 12.9 0.00 0.00 0.00 71 1016.9
20260507194536 22 225 3.2 9.7 0.00 0.00 0.00 70 1017.1
20260507193516 22 270 4.8 11.3 0.00 0.00 0.00 71 1017.1
20260507192516 22 225 4.8 11.3 0.00 0.00 0.00 71 1017.3
20260507191517 22 248 3.2 8.0 0.00 0.00 0.00 71 1017.3
20260507190516 22 270 3.2 8.0 0.00 0.00 0.00 71 1017.3
20260507185516 22 270 3.2 9.7 0.00 0.00 0.00 71 1017.5
20260507184516 22 225 3.2 8.0 0.00 0.00 0.00 71 1017.6
20260507183516 22 248 4.8 11.3 0.00 0.00 0.00 71 1017.6
20260507182516 22 225 3.2 8.0 0.00 0.00 0.00 71 1017.6
20260507181516 22 225 3.2 8.0 0.00 0.00 0.00 71 1017.6
20260507180516 22 248 3.2 6.4 0.00 0.00 0.00 70 1017.8
20260507175516 22 270 3.2 6.4 0.00 0.00 0.00 70 1017.8
20260507174516 22 225 1.6 6.4 0.00 0.00 0.00 71 1017.9
20260507173516 21 270 1.6 4.8 0.00 0.00 0.00 72 1017.9
20260507172516 21 270 1.6 6.4 0.00 0.00 0.00 74 1017.8
20260507171536 21 270 3.2 4.8 0.00 0.00 0.00 73 1017.8
20260507170516 21 225 1.6 6.4 0.00 0.00 0.00 74 1017.7
20260507165516 20 270 1.6 8.0 0.00 0.00 0.00 75 1017.7
20260507164516 20 248 1.6 4.8 0.00 0.00 0.00 76 1018.0
20260507163536 20 270 1.6 4.8 0.00 0.00 0.00 77 1018.2
20260507162517 20 203 1.6 4.8 0.00 0.00 0.00 78 1018.1
20260507161516 20 270 1.6 4.8 0.00 0.00 0.00 78 1018.1
20260507160516 20 203 1.6 4.8 0.00 0.00 0.00 78 1018.2
20260507155536 19 225 1.6 4.8 0.00 0.00 0.00 80 1018.4
20260507154536 18 0.0 3.2 0.00 0.00 0.00 80 1018.5
20260507153515 18 0.0 1.6 0.00 0.00 0.00 82 1018.4
20260507152516 17 0.0 1.6 0.00 0.00 0.00 83 1018.4
20260507151516 16 0.0 1.6 0.00 0.00 0.00 84 1018.4
20260507150516 16 0.0 0.0 0.00 0.00 0.00 87 1018.3
20260507145516 15 0.0 0.0 0.00 0.00 0.00 91 1018.2
20260507144516 13 0.0 0.0 0.00 0.00 0.00 93 1018.2
20260507143516 13 0.0 0.0 0.00 0.00 0.00 94 1018.2
20260507142515 12 0.0 0.0 0.00 0.00 0.00 94 1018.1
20260507141516 12 0.0 0.0 0.00 0.00 0.00 94 1018.0
20260507140517 11 0.0 1.6 0.00 0.00 0.00 94 1018.1
20260507135518 11 0.0 0.0 0.00 0.00 0.00 94 1018.0
20260507134519 11 0.0 0.0 0.00 0.00 0.00 94 1017.9
20260507133518 11 0.0 0.0 0.00 0.00 0.00 94 1017.8
20260507132519 11 0.0 0.0 0.00 0.00 0.00 94 1017.8
20260507131559 11 0.0 0.0 0.00 0.00 0.00 94 1017.7
20260507130517 11 0.0 1.6 0.00 0.00 0.00 94 1017.7
20260507125517 11 0.0 0.0 0.00 0.00 0.00 94 1017.6
20260507124517 11 0.0 1.6 0.00 0.00 0.00 93 1017.5
20260507123537 11 0.0 0.0 0.00 0.00 0.00 93 1017.4
20260507122518 11 0.0 0.0 0.00 0.00 0.00 93 1017.4
20260507121517 11 0.0 0.0 0.00 0.00 0.00 93 1017.3
20260507120537 11 0.0 0.0 0.00 0.00 0.00 93 1017.4
20260507115517 11 0.0 0.0 0.00 0.00 0.00 93 1017.2
20260507114517 11 0.0 1.6 0.00 0.00 0.00 94 1017.4
20260507113518 11 0.0 0.0 0.00 0.00 0.00 94 1017.3
20260507112518 11 0.0 0.0 0.00 0.00 0.00 94 1017.4
20260507111518 11 0.0 0.0 0.00 0.00 0.00 94 1017.5
20260507110517 11 0.0 0.0 0.00 0.00 0.00 94 1017.6
20260507105517 11 0.0 0.0 0.00 0.00 0.00 94 1017.6
20260507104517 11 0.0 0.0 0.00 0.00 0.00 94 1017.6
20260507103537 11 0.0 0.0 0.00 0.00 0.00 94 1017.7
20260507102538 11 0.0 0.0 0.00 0.00 0.00 94 1017.9
20260507101517 12 0.0 0.0 0.00 0.00 0.00 94 1017.8
20260507100537 12 0.0 0.0 0.00 0.00 0.00 94 1017.8
20260507095517 12 0.0 0.0 0.00 0.00 0.00 94 1017.9
20260507094517 12 0.0 0.0 0.00 0.00 0.00 94 1017.8
20260507093517 12 0.0 0.0 0.00 0.00 0.00 94 1017.9
20260507092517 12 0.0 0.0 0.00 0.00 0.00 94 1018.0
20260507091517 12 0.0 0.0 0.00 0.00 0.00 94 1017.8
20260507090517 12 0.0 0.0 0.00 0.00 0.00 94 1017.8
20260507085517 12 0.0 0.0 0.00 0.00 0.00 94 1018.0
20260507084517 12 0.0 0.0 0.00 0.00 0.00 93 1018.2
20260507083517 12 0.0 0.0 0.00 0.00 0.00 93 1018.1
20260507082536 12 0.0 0.0 0.00 0.00 0.00 93 1018.3
20260507081517 12 0.0 0.0 0.00 0.00 0.00 93 1018.3
20260507080537 12 0.0 0.0 0.00 0.00 0.00 93 1018.4
20260507075516 12 0.0 0.0 0.00 0.00 0.00 93 1018.4
20260507074516 12 0.0 0.0 0.00 0.00 0.00 92 1018.5
20260507073516 13 0.0 0.0 0.00 0.00 0.00 92 1018.5
20260507072517 13 0.0 1.6 0.00 0.00 0.00 92 1018.7
20260507071517 13 0.0 0.0 0.00 0.00 0.00 92 1018.7
20260507070518 13 0.0 0.0 0.00 0.00 0.00 91 1018.7
20260507065516 13 0.0 0.0 0.00 0.00 0.00 91 1018.8
20260507064516 13 0.0 0.0 0.00 0.00 0.00 91 1018.8
20260507063516 13 0.0 0.0 0.00 0.00 0.00 91 1018.7
20260507062517 14 0.0 0.0 0.00 0.00 0.00 91 1018.7
20260507061536 14 0.0 0.0 0.00 0.00 0.00 91 1018.7
20260507060536 14 0.0 0.0 0.00 0.00 0.00 89 1018.8
20260507055517 14 0.0 0.0 0.00 0.00 0.00 89 1018.8
20260507054516 15 0.0 0.0 0.00 0.00 0.00 89 1018.8
20260507053516 15 0.0 0.0 0.00 0.00 0.00 89 1018.9
20260507052516 15 0.0 0.0 0.00 0.00 0.00 89 1018.9
20260507051517 15 0.0 0.0 0.00 0.00 0.00 89 1018.9
20260507050516 15 0.0 1.6 0.00 0.00 0.00 89 1018.7
20260507045516 15 0.0 1.6 0.00 0.00 0.00 89 1018.7
20260507044516 15 0.0 3.2 0.00 0.00 0.00 88 1018.7
20260507043516 16 0.0 0.0 0.00 0.00 0.00 88 1018.7
20260507042517 16 0.0 3.2 0.00 0.00 0.00 88 1018.8
20260507041537 16 0.0 3.2 0.00 0.00 0.00 88 1018.7
20260507040517 16 0.0 1.6 0.00 0.00 0.00 87 1018.6
20260507035517 16 0.0 1.6 0.00 0.00 0.00 87 1018.7
20260507034517 16 0.0 4.8 0.00 0.00 0.00 86 1018.5
20260507033517 16 0.0 1.6 0.00 0.00 0.00 86 1018.4
20260507032516 16 225 1.6 3.2 0.00 0.00 0.00 86 1018.4
20260507031515 16 225 1.6 3.2 0.00 0.00 0.00 85 1018.4
20260507030556 17 0.0 3.2 0.00 0.00 0.00 85 1018.3
20260507025516 17 0.0 3.2 0.00 0.00 0.00 84 1018.2
20260507024516 17 270 1.6 6.4 0.00 0.00 0.00 83 1018.0
20260507023515 18 248 1.6 3.2 0.00 0.00 0.00 81 1017.9
20260507022516 18 225 1.6 6.4 0.00 0.00 0.00 79 1017.9
20260507021518 18 248 1.6 3.2 0.00 0.00 0.00 77 1017.8
20260507020518 19 248 1.6 4.8 0.00 0.00 0.00 78 1017.9
20260507015518 19 270 3.2 4.8 0.00 0.00 0.00 78 1017.8
20260507014538 20 270 3.2 6.4 0.00 0.00 0.00 77 1017.7
20260507013537 20 225 3.2 6.4 0.00 0.00 0.00 74 1017.8
20260507012517 20 225 4.8 8.0 0.00 0.00 0.00 73 1017.8
20260507011517 21 225 3.2 11.3 0.00 0.00 0.00 69 1017.7
20260507010517 21 225 4.8 12.9 0.00 0.00 0.00 65 1017.6
20260507005517 22 225 3.2 8.0 0.00 0.00 0.00 62 1017.4
20260507004517 22 225 4.8 11.3 0.00 0.00 0.00 60 1017.5
20260507003517 22 270 3.2 8.0 0.00 0.00 0.00 59 1017.5
20260507002517 22 270 1.6 4.8 0.00 0.00 0.00 58 1017.4
20260507001517 22 270 1.6 6.4 0.00 0.00 0.00 58 1017.3
20260507000517 22 225 4.8 11.3 0.00 0.00 0.00 58 1017.4
20260506235517 22 270 3.2 9.7 0.00 0.00 0.00 61 1017.2
20260506234518 22 248 4.8 11.3 0.00 0.00 0.00 62 1017.3
20260506233539 22 270 3.2 8.0 0.00 0.00 0.00 65 1017.3
20260506232517 22 270 4.8 12.9 0.00 0.00 0.00 65 1017.3
20260506231537 22 270 4.8 12.9 0.00 0.00 0.00 65 1017.4
20260506230517 22 225 6.4 11.3 0.00 0.00 0.00 65 1017.5
20260506225517 22 270 4.8 11.3 0.00 0.00 0.00 65 1017.4
20260506224537 22 270 4.8 9.7 0.00 0.00 0.00 65 1017.5
20260506223517 22 225 6.4 14.5 0.00 0.00 0.00 65 1017.6
20260506222518 22 248 4.8 12.9 0.00 0.00 0.00 65 1017.7
20260506221516 22 225 4.8 12.9 0.00 0.00 0.00 66 1017.6
20260506220519 22 270 3.2 8.0 0.00 0.00 0.00 67 1017.8
20260506215537 22 270 4.8 12.9 0.00 0.00 0.00 67 1018.0
20260506214518 22 270 6.4 17.7 0.00 0.00 0.00 67 1017.9
20260506213538 21 225 6.4 14.5 0.00 0.00 0.00 67 1018.0
20260506212516 22 270 6.4 14.5 0.00 0.00 0.00 66 1018.3
20260506211516 22 248 6.4 12.9 0.00 0.00 0.00 66 1018.2
20260506210517 21 225 4.8 11.3 0.00 0.00 0.00 68 1018.3
20260506205517 22 270 4.8 11.3 0.00 0.00 0.00 67 1018.4
20260506204517 22 225 4.8 11.3 0.00 0.00 0.00 64 1018.5
20260506203557 22 270 4.8 14.5 0.00 0.00 0.00 65 1018.5
20260506202517 22 225 4.8 9.7 0.00 0.00 0.00 66 1018.7